Weather History for Kozani, Greece

Change the Weather History Date:

Thursday, September 19, 2013

  Actual Average Record
Temperature  
Mean Temperature 66 °F -  
Max Temperature 80 °F - - ()
Min Temperature 51 °F - - ()
Growing Degree Days 16 (Base 50)    
Moisture  
Dew Point 38 °F    
Average Humidity 30    
Maximum Humidity 58    
Minimum Humidity 18    
Precipitation  
Precipitation 0.00 in - - ()
Sea Level Pressure  
Sea Level Pressure 29.76 in    
Wind  
Wind Speed 5 mph ()    
Max Wind Speed 12 mph    
Max Gust Speed -    
Visibility 6.2 miles    
Events      
T = Trace of Precipitation, MM = Missing Value Source: Averaged Metar Reports

Daily Weather History Graph

Daily Weather History Graph

Search for Another Location

Airport:

Trip Planner

Search our weather history database for the weather conditions in past years. The results will help you decide how hot, cold, wet, or windy it might be!

Date:

Astronomy

Sep. 19, 2013 Rise Set
Actual Time 7:17 AM EEST 7:34 PM EEST
Civil Twilight 6:50 AM EEST 8:02 PM EEST
Nautical Twilight 6:18 AM EEST 8:33 PM EEST
Astronomical Twilight 5:45 AM EEST 9:06 PM EEST
Moon 7:22 PM EEST (9/19) 7:05 AM EEST (9/19)
Length of Visible Light 13h 11m
Length of Day
12h 17m
Full, 100% of the Moon is Illuminated
Sep 19
Full
Sep 19
Full
Sep 27
Last Quarter
Oct 5
New
Oct 12
First Quarter

Hourly Weather History & Observations

Time (EEST) Temp. Dew Point Humidity Pressure Visibility Wind Dir Wind Speed Gust Speed Precip Events Conditions
6:50 AM - - N/A% 29.77 in - SW 5.8 mph - N/A   Clear
7:50 AM 51.8 °F 37.4 °F 58% 29.77 in 6.2 mi SW 5.8 mph - N/A   Scattered Clouds
8:50 AM 62.6 °F 35.6 °F 37% 29.77 in 6.2 mi Calm Calm - N/A   Scattered Clouds
9:50 AM 64.4 °F 35.6 °F 34% 29.80 in 6.2 mi Calm Calm - N/A   Scattered Clouds
10:50 AM 69.8 °F 48.2 °F 46% 29.80 in 6.2 mi Calm Calm - N/A   Partly Cloudy
11:50 AM 71.6 °F 33.8 °F 25% 29.77 in - Calm Calm - N/A   Clear
12:50 PM 75.2 °F 33.8 °F 22% 29.77 in - Calm Calm - N/A   Clear
1:20 PM 77.0 °F 32.0 °F 19% 29.77 in - WSW 4.6 mph - N/A   Unknown
1:50 PM 77.0 °F 33.8 °F 21% 29.74 in - WSW 8.1 mph - N/A   Unknown
2:20 PM 77.0 °F 33.8 °F 21% 29.74 in - WSW 4.6 mph - N/A   Unknown
2:50 PM 78.8 °F 35.6 °F 21% 29.74 in - WSW 6.9 mph - N/A   Unknown
3:20 PM 80.6 °F 33.8 °F 18% 29.74 in - WSW 5.8 mph - N/A   Unknown
3:50 PM 80.6 °F 35.6 °F 20% 29.71 in - WSW 5.8 mph - N/A   Unknown
4:20 PM 80.6 °F 33.8 °F 18% 29.71 in - WSW 9.2 mph - N/A   Unknown
4:50 PM 80.6 °F 33.8 °F 18% 29.71 in - WSW 5.8 mph - N/A   Unknown
5:20 PM 80.6 °F 35.6 °F 20% 29.71 in - WSW 8.1 mph - N/A   Unknown
5:50 PM 78.8 °F 35.6 °F 21% 29.74 in - WSW 6.9 mph - N/A   Unknown
6:20 PM 78.8 °F 39.2 °F 24% 29.74 in - WSW 9.2 mph - N/A   Unknown
6:50 PM 75.2 °F 41.0 °F 29% 29.74 in - WSW 11.5 mph - N/A   Unknown
7:20 PM 73.4 °F 41.0 °F 31% 29.74 in - WSW 9.2 mph - N/A   Unknown
7:50 PM 71.6 °F 41.0 °F 33% 29.77 in - WSW 8.1 mph - N/A   Unknown
8:20 PM 71.6 °F 39.2 °F 31% 29.77 in - WSW 9.2 mph - N/A   Unknown
8:50 PM 69.8 °F 41.0 °F 35% 29.77 in - WSW 8.1 mph - N/A   Unknown
9:20 PM 68.0 °F 41.0 °F 37% 29.80 in - Variable 3.5 mph - N/A   Unknown
9:50 PM 68.0 °F 41.0 °F 37% 29.80 in - WSW 5.8 mph - N/A   Unknown
10:20 PM 68.0 °F 42.8 °F 40% 29.80 in - WSW 5.8 mph - N/A   Unknown
10:50 PM 66.2 °F 42.8 °F 43% 29.83 in - WSW 6.9 mph - N/A   Unknown
11:20 PM 66.2 °F 42.8 °F 43% 29.83 in - WSW 5.8 mph - N/A   Unknown
11:50 PM 66.2 °F 42.8 °F 43% 29.83 in - WSW 5.8 mph - N/A   Unknown